Location: ???????
(60.4260°N, 46.9069°E)
Time: 18:52:12
(UTC+00:00)

Cosmos 1356 - Pass Details

Date: 30 March 2020
Orbit: 444 x 447 km, 81.1° (Epoch: 06 June)

Event Time Altitude Azimuth Distance (km) Brightness Sun altitude
Rises 01:28:27 0° 342° (NNW) 2,468 7.2 -7.3°
Reaches altitude 10° 01:30:32 10° 343° (NNW) 1,590 6.2 -7.0°
Maximum altitude 01:34:01 89° 70° (ENE) 456 3.4 -6.6°
Drops below altitude 10° 01:37:27 10° 164° (SSE) 1,575 6.1 -6.2°
Sets 01:39:30 0° 164° (SSE) 2,441 7.1 -6.0°
